Location: T�bingen+AIT
(48.5342°N, 9.0700°E)
Time: 20:28:45
(UTC+02:00)

CZ-2D R/B - Pass Details

Date: 14 September 2017
Orbit: 523 x 541 km, 97.5° (Epoch: 19 September)

Event Time Altitude Azimuth Distance (km) Brightness Sun altitude
Rises 21:03:10 0° 179° (S) 2,645 6.6 -14.4°
Reaches altitude 10° 21:05:18 10° 185° (S) 1,760 5.7 -14.8°
Maximum altitude 21:08:59 48° 261° (W) 694 4.2 -15.3°
Drops below altitude 10° 21:12:42 10° 336° (NNW) 1,773 6.6 -15.9°
Sets 21:14:52 0° 343° (NNW) 2,667 7.5 -16.2°
